Tracking 19638 objects as of 19-Apr-2019
HD Live streaming from Space Station
objects crossing your sky now

THORAD AGENA D DEB

Track THORAD AGENA D DEB now!
10-day predictions


NORAD ID: 4993
Int'l Code: 1970-025HP
Perigee: 842.1 km
Apogee: 981.9 km
Inclination: 100.2 °
Period: 103.1 minutes
Semi major axis: 7282 km
RCS: 0.013 m2 (small)
Launch date: April 8, 1970
Source: United States (US)
Launch site: AIR FORCE WESTERN TEST RANGE (AFWTR)

Note: This is SATELLITE DEBRIS
aabbcc
Your satellite tracking list
Your tracking list is empty




NASA's NSSDC Master Catalog

Two Line Element Set (TLE):
1  4993U 70025HP  19108.70861060 +.00000363 +00000-0 +28738-3 0  9999
2  4993 100.2204 291.1823 0095965 088.2469 272.9678 13.96815237473508
Source of the keplerian elements: AFSPC